Location: Bakov nad Jizerou
(50.4784°N, 14.9394°E)
Time: 03:52:09
(UTC+00:00)

Cosmos 1727 Rocket - Pass Details

Date: 02 November 2021
Orbit: 960 x 997 km, 82.9° (Epoch: 07 December)

Event Time Altitude Azimuth Distance (km) Brightness Sun altitude
Rises 02:32:38 0° 136° (SE) 3,686 7.4 -32.0°
Reaches altitude 10° 02:35:59 10° 118° (ESE) 2,736 6.8 -31.5°
Maximum altitude 02:39:57 18° 78° (ENE) 2,213 6.6 -30.9°
Drops below altitude 10° 02:43:54 10° 38° (NE) 2,731 6.9 -30.3°
Sets 02:47:14 0° 21° (NNE) 3,677 7.5 -29.8°
